Change the Weather History Date:

Sunday, September 16, 2012

  Actual Average Record
Temperature  
Mean Temperature 61 °F 63 °F  
Max Temperature 74 °F 73 °F 95 °F (1939)
Min Temperature 48 °F 53 °F 37 °F (1923)
Degree Days  
Heating Degree Days 4 4  
Month to date heating degree days 23 33  
Since 1 July heating degree days 25 53  
Cooling Degree Days 0 2  
Month to date cooling degree days 85 48  
Year to date cooling degree days 1038 630  
Growing Degree Days 10 (Base 50)    
Moisture  
Dew Point 44 °F    
Average Humidity 57    
Maximum Humidity 80    
Minimum Humidity 33    
Precipitation  
Precipitation 0.00 in 0.12 in 1.76 in (2010)
Month to date precipitation 1.95 1.90  
Year to date precipitation 25.36 29.10  
Snow  
Snow 0.00 in 0.00 in - ()
Month to date snowfall 0.0 0.0  
Since 1 July snowfall 0.0 0.0  
Since 1 September snowfall 0.0 0.0  
Snow Depth 0.00 in    
Sea Level Pressure  
Sea Level Pressure 30.14 in    
Wind  
Wind Speed 3 mph (SSE)    
Max Wind Speed 9 mph    
Max Gust Speed 17 mph    
Visibility 10 miles    
Events Fog    
T = Trace of Precipitation, MM = Missing Value Source: NWS Daily Summary

Daily Weather History Graph

Daily Weather History Graph

Search for Another Location

Airport or City:

Trip Planner

Search our weather history database for the weather conditions in past years. The results will help you decide how hot, cold, wet, or windy it might be!

Date:

Astronomy

Sep. 16, 2012 Rise Set
Actual Time 7:07 AM EDT 7:32 PM EDT
Civil Twilight 6:40 AM EDT 7:59 PM EDT
Nautical Twilight 6:07 AM EDT 8:32 PM EDT
Astronomical Twilight 5:34 AM EDT 9:05 PM EDT
Moon 7:46 AM EDT (9/16) 7:35 PM EDT (9/16)
Length of Visible Light 13h 19m
Length of Day
12h 24m
New Moon, 0% of the Moon is Illuminated
Sep 16
New Moon
Sep 22
First Quarter
Sep 29
Full
Oct 8
Last Quarter
Oct 15
New

Hourly Weather History & Observations

Time (EDT) Temp. Dew Point Humidity Pressure Visibility Wind Dir Wind Speed Gust Speed Precip Events Conditions
12:51 AM 51.1 °F 42.1 °F 71% 30.20 in 10.0 mi Calm Calm - N/A   Scattered Clouds
1:51 AM 50.0 °F 42.1 °F 74% 30.19 in 10.0 mi Calm Calm - N/A   Clear
2:51 AM 51.1 °F 42.1 °F 71% 30.19 in 10.0 mi Calm Calm - N/A   Partly Cloudy
3:51 AM 51.1 °F 43.0 °F 74% 30.17 in 10.0 mi Calm Calm - N/A   Scattered Clouds
4:51 AM 50.0 °F 42.1 °F 74% 30.17 in 10.0 mi Calm Calm - N/A   Partly Cloudy
5:51 AM 48.9 °F 42.1 °F 77% 30.18 in 10.0 mi South 4.6 mph - N/A   Partly Cloudy
6:51 AM 48.0 °F 42.1 °F 80% 30.19 in 10.0 mi Calm Calm - N/A   Mostly Cloudy
7:51 AM 48.9 °F 43.0 °F 80% 30.20 in 8.0 mi South 3.5 mph - N/A Fog Shallow Fog
8:51 AM 54.0 °F 46.0 °F 75% 30.20 in 8.0 mi South 4.6 mph - N/A   Mostly Cloudy
9:51 AM 60.1 °F 46.9 °F 62% 30.20 in 8.0 mi South 5.8 mph - N/A   Mostly Cloudy
10:51 AM 64.0 °F 45.0 °F 50% 30.19 in 10.0 mi South 5.8 mph - N/A   Mostly Cloudy
11:51 AM 68.0 °F 44.1 °F 42% 30.18 in 10.0 mi South 5.8 mph - N/A   Mostly Cloudy
12:51 PM 69.1 °F 42.1 °F 38% 30.16 in 10.0 mi SW 4.6 mph - N/A   Scattered Clouds
1:51 PM 71.1 °F 42.1 °F 35% 30.14 in 10.0 mi Variable 3.5 mph - N/A   Scattered Clouds
2:51 PM 73.0 °F 43.0 °F 34% 30.12 in 10.0 mi Calm Calm - N/A   Scattered Clouds
3:51 PM 72.0 °F 43.0 °F 35% 30.10 in 10.0 mi South 3.5 mph - N/A   Partly Cloudy
4:51 PM 73.0 °F 45.0 °F 37% 30.08 in 10.0 mi Variable 3.5 mph - N/A   Scattered Clouds
5:51 PM 73.0 °F 46.0 °F 38% 30.07 in 10.0 mi North 5.8 mph - N/A   Scattered Clouds
6:51 PM 70.0 °F 46.0 °F 42% 30.08 in 10.0 mi East 5.8 mph - N/A   Scattered Clouds
7:51 PM 66.9 °F 46.0 °F 47% 30.09 in 10.0 mi East 4.6 mph - N/A   Scattered Clouds
8:51 PM 64.0 °F 46.0 °F 52% 30.09 in 10.0 mi East 4.6 mph - N/A   Scattered Clouds
9:51 PM 63.0 °F 46.0 °F 54% 30.09 in 10.0 mi SE 4.6 mph - N/A   Scattered Clouds
10:51 PM 60.1 °F 46.0 °F 60% 30.09 in 10.0 mi SSE 5.8 mph - N/A   Scattered Clouds
11:51 PM 59.0 °F 46.0 °F 62% 30.09 in 10.0 mi SW 3.5 mph - N/A   Partly Cloudy